STARLINK-3108 (49439 NORAD) Tracking and Keplerian Element Data

This shows tracking and keplerian element data for the satellite.

Feedback or suggestion? Click here.




ElementValue
Catalog49439
NameSTARLINK-3108
Epoch Orbit481
Epoch Day339.91667824
Epoch Year2021
RAAN22.2241
Inclination53.2185
Eccentricity0.0001912
Argument of Perigee18.8702
Mean Anonmoly55.8086
Mean Motion15.73166196
Decay Rate0.0004443
L11 49439U 21104AH 21339.91667824 .00044430 00000+0 31976-3 0 9991
L22 49439 53.2185 22.2241 0001912 18.8702 55.8086 15.73166196 4817

Live tracking and technical data element details for STARLINK-3108 (NORAD 49439). STARLINK-3108 can be tracked NOW for your location showing map with azimuth and elevation plus other details from your city location.

Track the satellite on the map from your city or location and see movement details for azimuth, elevation, latitude, longitude, range, height, and movement on the map or in text.







IsCatalogInMostPopularTable: catalog: 49439, numindb: 1
Update: records affected: 1



GetName: 49439 STARLINK-3108

Hit Count: updated at: Wed, 08 Dec 2021 14:51:02 GMT